[[{"header":{"parameterUnit":"m.s-1","parameterCategory":1,"la1":30.2991,"la2":30.254,"lo1":-89.0895,"lo2":-89.0444,"dy":0.0017,"dx":0.0017,"nx":28,"ny":28,"refTime":"2024-12-15T09:00:00:Z","depth":0,"parameterNumber":2,"parameterNumberName":"U-component_of_WINDS"},"data":[0,0,0,0,0,0,0,0,0,0,0,0,0,0,0,0,0,0,0,0,0,0,0,0,0,0,0,0,0,0,0,0,0,0,0,0,0,0,0,0,0,0,0,0,0,0,0,0,0,0,0,0,0,0,0,0,0,0,-3.6213,-3.6213,0,-3.6231,-3.6232,-3.6232,-3.6166,-3.6164,-3.6162,-3.616,-3.6181,-3.6183,-3.6186,0,0,0,0,0,0,0,0,0,0,0,0,0,-3.6125,-3.6127,-3.6213,-3.6213,-3.6214,-3.6231,-3.6232,-3.6232,-3.6166,-3.6164,-3.6161,-3.6159,-3.618,-3.6183,-3.6186,0,0,0,0,0,0,0,0,0,0,0,0,0,-3.6156,-3.6128,-3.6213,-3.6183,-3.618,-3.6231,-3.6232,-3.6232,-3.6167,-3.6164,-3.6161,-3.6158,-3.6179,-3.6183,-3.6186,-3.6268,0,0,-3.6197,-3.6199,0,0,0,0,0,0,0,0,-3.6154,-3.6159,-3.6187,-3.6185,-3.6182,-3.6193,-3.6208,-3.6244,-3.6167,-3.6172,-3.616,-3.6156,-3.6188,-3.619,-3.62,-3.6269,-3.627,-3.6198,-3.62,-3.6201,-3.6202,0,0,0,0,0,0,0,-3.6152,-3.6158,-3.622,-3.6188,-3.6185,-3.617,-3.6171,-3.6215,-3.6196,-3.6171,-3.6166,-3.6169,-3.6186,-3.6197,-3.62,-3.627,-3.6198,-3.6201,-3.6203,-3.6204,-3.641,-3.6413,0,0,0,0,0,0,-3.6153,-3.6156,-3.622,-3.6221,-3.616,-3.6174,-3.6175,-3.6193,-3.6196,-3.6193,-3.6172,-3.6166,-3.6192,-3.6196,-3.6201,-3.6298,-3.6201,-3.6205,-3.6207,-3.6406,-3.641,-3.6414,0,0,0,0,0,0,-3.6152,-3.616,-3.6219,-3.6187,-3.6194,-3.6178,-3.6199,-3.6195,-3.6206,-3.6196,-3.6193,-3.6187,-3.619,-3.6196,-3.6252,-3.6298,-3.6206,-3.621,-3.6403,-3.6408,-3.6412,-3.6493,0,0,0,0,0,0,-3.6149,-3.6159,-3.6189,-3.6188,-3.6196,-3.6269,-3.6202,-3.6197,-3.6212,-3.6205,-3.6209,-3.6207,-3.6188,-3.6247,-3.6256,-3.6301,-3.6213,-3.6398,-3.6405,-3.6411,-3.6486,-3.65,-3.6512,0,0,0,0,0,-3.6146,-3.6211,-3.6191,-3.6199,-3.6232,-3.6272,-3.6276,-3.6253,-3.6216,-3.6246,-3.6241,-3.6207,-3.6292,-3.6254,-3.6263,-3.631,-3.6395,-3.6403,-3.641,-3.648,-3.6497,-3.6511,0,0,0,0,0,0,-3.6217,-3.621,-3.6188,-3.6254,-3.6264,-3.626,-3.6298,-3.6271,-3.6292,-3.6285,-3.6255,-3.6257,-3.6319,-3.632,-3.6278,-3.6391,-3.6337,-3.6347,-3.6388,-3.6404,-3.6416,-3.6415,-3.6216,0,0,0,0,0,-3.6241,-3.6272,-3.6265,-3.6324,-3.633,-3.6314,-3.633,-3.6311,-3.6321,-3.6325,-3.6323,-3.6334,-3.6364,-3.6384,-3.641,-3.6486,-3.6487,-3.6523,-3.6536,-3.6547,-3.6556,-3.6598,-3.6615,-3.6438,-3.6438,-3.6438,0,0,-3.6289,-3.6289,-3.6311,-3.6338,-3.6344,-3.6379,-3.6318,-3.6356,-3.6382,-3.6331,-3.6384,-3.6384,-3.6395,-3.6462,-3.6491,-3.6464,-3.6605,-3.6556,-3.6565,-3.6568,-3.6607,-3.6624,-3.6639,-3.6443,-3.6442,-3.6442,0,0,-3.6396,-3.6398,-3.6448,-3.6456,-3.6465,-3.6454,-3.6467,-3.6468,-3.6465,-3.6518,-3.6481,-3.6512,-3.6563,-3.6573,-3.6585,-3.6698,-3.6669,-3.6708,-3.6775,-3.6817,-3.6831,-3.6843,-3.6885,-3.69,-3.6716,-3.6717,-3.6717,0,-3.6455,-3.6504,-3.6478,-3.652,-3.6534,-3.6489,-3.6541,-3.655,-3.6568,-3.6579,-3.6549,-3.6613,-3.6617,-3.6687,-3.6715,-3.6725,-3.674,-3.6707,-3.6831,-3.6843,-3.6854,-3.6893,-3.6909,-3.6721,-3.6721,-3.672,-3.672,0,-3.6578,-3.6613,-3.6653,-3.6672,-3.669,-3.6737,-3.6719,-3.6742,-3.6722,-3.6715,-3.6771,-3.6775,-3.6802,-3.6817,-3.6798,-3.6886,-3.6869,-3.6835,-3.6781,-3.6876,-3.6913,-3.6927,-3.6728,-3.6726,-3.6725,-3.6724,0,0,-3.6727,-3.6732,-3.6748,-3.6757,-3.6765,-3.6792,-3.6838,-3.6865,-3.6885,-3.69,-3.6939,-3.6984,-3.6954,-3.6967,-3.6949,-3.6986,-3.7078,-3.6948,-3.6948,-3.6973,-3.7176,-3.7202,-3.722,-3.7058,-3.7061,-3.7063,-3.7176,0,-3.6833,-3.691,-3.6889,-3.6967,-3.7001,-3.6961,-3.7001,-3.7011,-3.7007,-3.7036,-3.7031,-3.7064,-3.702,-3.7028,-3.7063,-3.7059,-3.7118,-3.7051,-3.7096,-3.7098,-3.7095,-3.7239,-3.7266,-3.7371,-3.719,-3.7192,-3.7194,0,-3.6965,-3.6985,-3.7067,-3.7072,-3.7085,-3.7122,-3.7146,-3.7174,-3.7186,-3.718,-3.7196,-3.7172,-3.7219,-3.7165,-3.7231,-3.7186,-3.7203,-3.7205,-3.7208,-3.7212,-3.7152,-3.7247,-3.7404,-3.7421,-3.7216,-3.7214,-3.7213,0,-3.7068,-3.7116,-3.7171,-3.718,-3.7187,-3.7214,-3.7218,-3.7227,-3.7245,-3.7267,-3.7278,-3.7305,-3.732,-3.7343,-3.7327,-3.7289,-3.7396,-3.734,-3.7394,-3.7395,-3.7418,-3.7417,-3.7582,-3.7429,-3.7429,-3.7429,-3.7428,0,-3.7188,-3.724,-3.7218,-3.7252,-3.731,-3.7286,-3.7344,-3.7344,-3.7353,-3.7388,-3.7354,-3.7388,-3.7365,-3.7397,-3.7386,-3.7443,-3.745,-3.7448,-3.7444,-3.7451,-3.7452,-3.7462,-3.7455,-3.7433,-3.7432,-3.7431,-3.743,0,-3.7312,-3.7299,-3.7357,-3.7359,-3.7361,-3.7404,-3.7407,-3.7439,-3.7433,-3.7478,-3.7487,-3.7477,-3.7514,-3.7501,-3.754,-3.7532,-3.7606,-3.7592,-3.7601,-3.7598,-3.7653,-3.7649,-3.783,-3.7854,-3.7686,-3.7687,-3.7689,0,-3.7389,-3.7428,-3.7435,-3.7456,-3.7463,-3.7497,-3.7515,-3.7494,-3.7516,-3.7534,-3.7565,-3.7599,-3.7624,-3.7685,-3.7682,-3.7713,-3.77,-3.7762,-3.7705,-3.7711,-3.7703,-3.7701,-3.7705,-3.7774,-3.7776,-3.7777,-3.7778,0,-3.7528,-3.7521,-3.7548,-3.7575,-3.7598,-3.7618,-3.7635,-3.7655,-3.7635,-3.7661,-3.7698,-3.7718,-3.7759,-3.7793,-3.7821,-3.7827,-3.7801,-3.7797,-3.7811,-3.7818,-3.7823,-3.7823,-3.7634,-3.7792,-3.7791,-3.779,-3.7789,-3.7789,-3.7632,-3.7666,-3.7677,-3.7709,-3.772,-3.7738,-3.7769,-3.7768,-3.7798,-3.7829,-3.7815,-3.7859,-3.7872,-3.7907,-3.7917,-3.7952,-3.7928,-3.7948,-3.7953,-3.7959,-3.7966,-3.7817,-3.7956,-3.7956,-3.7956,-3.7955,-3.7955,0,-3.777,-3.7776,-3.7806,-3.7832,-3.7859,-3.7831,-3.7849,-3.7874,-3.7912,-3.7927,-3.7953,-3.7997,-3.8031,-3.8032,-3.8065,-3.8092,-3.8081,-3.8102,-3.81,-3.8102,-3.7985,-3.797,-3.811,-3.811,-3.811,-3.811,-3.811,-3.811,-3.7845,-3.7902,-3.7896,-3.7958,-3.7964,-3.8006,-3.8019,-3.8036,-3.8047,-3.8098,-3.8126,-3.8126,-3.8136,-3.8169,-3.82,-3.82,-3.8214,-3.8239,-3.8234,-3.8125,-3.811,-3.8095,-3.8081,-3.8242,-3.8242,-3.8348,-3.8349,-3.835]},{"header":{"parameterUnit":"m.s-1","parameterCategory":1,"la1":30.2991,"la2":30.254,"lo1":-89.0895,"lo2":-89.0444,"dy":0.0017,"dx":0.0017,"nx":28,"ny":28,"refTime":"2024-12-15T09:00:00:Z","depth":0,"parameterNumber":3,"parameterNumberName":"V-component_of_WINDS"},"data":[0,0,0,0,0,0,0,0,0,0,0,0,0,0,0,0,0,0,0,0,0,0,0,0,0,0,0,0,0,0,0,0,0,0,0,0,0,0,0,0,0,0,0,0,0,0,0,0,0,0,0,0,0,0,0,0,0,0,-0.4737,-0.4737,0,-0.4702,-0.4701,-0.4701,-0.4632,-0.4631,-0.4629,-0.4628,-0.4593,-0.4594,-0.4594,0,0,0,0,0,0,0,0,0,0,0,0,0,-0.4745,-0.4746,-0.4737,-0.4737,-0.4736,-0.4702,-0.4701,-0.4701,-0.4632,-0.4631,-0.4629,-0.4627,-0.4593,-0.4593,-0.4594,0,0,0,0,0,0,0,0,0,0,0,0,0,-0.4729,-0.4746,-0.4737,-0.4698,-0.4694,-0.4702,-0.4701,-0.4701,-0.4633,-0.463,-0.4628,-0.4627,-0.4593,-0.4593,-0.4594,-0.4638,0,0,-0.4595,-0.4596,0,0,0,0,0,0,0,0,-0.473,-0.4729,-0.4704,-0.47,-0.4696,-0.4669,-0.4691,-0.468,-0.4633,-0.4656,-0.4628,-0.4626,-0.462,-0.4618,-0.4616,-0.4636,-0.4635,-0.4596,-0.4596,-0.4596,-0.4596,0,0,0,0,0,0,0,-0.4731,-0.473,-0.4723,-0.4704,-0.4699,-0.4682,-0.4677,-0.4689,-0.465,-0.4654,-0.4649,-0.4645,-0.4618,-0.4616,-0.4615,-0.4634,-0.4596,-0.4596,-0.4596,-0.4596,-0.4687,-0.4689,0,0,0,0,0,0,-0.4738,-0.4732,-0.4724,-0.4722,-0.4708,-0.4683,-0.4678,-0.468,-0.465,-0.4643,-0.4647,-0.4642,-0.4616,-0.4614,-0.4613,-0.4662,-0.4596,-0.4597,-0.4597,-0.4685,-0.4688,-0.469,0,0,0,0,0,0,-0.4739,-0.4738,-0.4726,-0.4725,-0.4722,-0.4685,-0.4688,-0.468,-0.4678,-0.4645,-0.4637,-0.4652,-0.4614,-0.4613,-0.4632,-0.466,-0.4597,-0.4597,-0.4683,-0.4686,-0.4689,-0.476,0,0,0,0,0,0,-0.4739,-0.4739,-0.4755,-0.4726,-0.4723,-0.4745,-0.4689,-0.4681,-0.4679,-0.4673,-0.4648,-0.4642,-0.4613,-0.4631,-0.4632,-0.4659,-0.4598,-0.468,-0.4684,-0.4688,-0.4755,-0.4765,-0.4774,0,0,0,0,0,-0.474,-0.4777,-0.4756,-0.4756,-0.4742,-0.4746,-0.4744,-0.471,-0.4682,-0.4698,-0.4676,-0.4642,-0.4657,-0.4634,-0.4634,-0.4662,-0.4678,-0.4683,-0.4687,-0.4751,-0.4763,-0.4774,0,0,0,0,0,0,-0.4811,-0.4773,-0.4749,-0.4778,-0.4766,-0.4735,-0.4754,-0.4724,-0.4721,-0.4715,-0.4672,-0.4667,-0.4692,-0.4679,-0.4654,-0.4702,-0.4662,-0.4667,-0.471,-0.4721,-0.4731,-0.4733,-0.4598,0,0,0,0,0,-0.483,-0.4836,-0.4802,-0.4831,-0.4826,-0.4792,-0.4792,-0.4766,-0.4752,-0.4747,-0.4727,-0.4715,-0.4716,-0.4718,-0.4718,-0.4753,-0.4746,-0.4772,-0.4781,-0.4789,-0.4794,-0.481,-0.4821,-0.4705,-0.4705,-0.4705,0,0,-0.4869,-0.4849,-0.4856,-0.4845,-0.4833,-0.484,-0.4788,-0.4798,-0.4803,-0.4749,-0.4765,-0.475,-0.4734,-0.4761,-0.4772,-0.475,-0.4824,-0.4795,-0.4802,-0.4802,-0.4816,-0.4827,-0.4837,-0.4709,-0.4708,-0.4708,0,0,-0.4945,-0.4931,-0.4952,-0.4941,-0.4922,-0.4899,-0.4904,-0.4877,-0.4865,-0.488,-0.4839,-0.4845,-0.4849,-0.4838,-0.4834,-0.4904,-0.4873,-0.4906,-0.4955,-0.4972,-0.4981,-0.4989,-0.5013,-0.5022,-0.4911,-0.4911,-0.4911,0,-0.4996,-0.5006,-0.4968,-0.498,-0.4976,-0.4927,-0.4948,-0.4939,-0.4922,-0.4921,-0.4897,-0.49,-0.4886,-0.4909,-0.4926,-0.4925,-0.4929,-0.4908,-0.4982,-0.499,-0.4997,-0.502,-0.5029,-0.4915,-0.4914,-0.4914,-0.4913,0,-0.5069,-0.5077,-0.5097,-0.508,-0.5079,-0.5096,-0.5061,-0.5064,-0.5038,-0.5017,-0.5033,-0.5014,-0.5009,-0.5012,-0.4988,-0.5032,-0.5019,-0.499,-0.4949,-0.5012,-0.5033,-0.5042,-0.492,-0.4919,-0.4918,-0.4917,0,0,-0.5189,-0.5151,-0.5159,-0.515,-0.5126,-0.5131,-0.5146,-0.5139,-0.5143,-0.5132,-0.5143,-0.5147,-0.5119,-0.5114,-0.5088,-0.5103,-0.5159,-0.5071,-0.507,-0.5088,-0.5206,-0.5228,-0.5238,-0.5138,-0.514,-0.5141,-0.5207,0,-0.5259,-0.5281,-0.5247,-0.5278,-0.5283,-0.5236,-0.5249,-0.5235,-0.5216,-0.5218,-0.5196,-0.5199,-0.5163,-0.5159,-0.5172,-0.515,-0.5182,-0.5144,-0.5148,-0.5148,-0.5153,-0.5249,-0.5273,-0.5336,-0.5215,-0.5216,-0.5217,0,-0.5343,-0.5336,-0.5367,-0.534,-0.5341,-0.5353,-0.5344,-0.5347,-0.533,-0.5315,-0.5309,-0.5277,-0.529,-0.525,-0.5266,-0.5241,-0.5241,-0.523,-0.5231,-0.523,-0.5186,-0.525,-0.5355,-0.5364,-0.5229,-0.5228,-0.5228,0,-0.5426,-0.5425,-0.5442,-0.5437,-0.5406,-0.5415,-0.5403,-0.5384,-0.5382,-0.5375,-0.5373,-0.5367,-0.5364,-0.536,-0.5328,-0.5302,-0.5348,-0.5306,-0.5336,-0.5336,-0.5347,-0.5347,-0.5453,-0.5348,-0.5348,-0.5348,-0.5347,0,-0.5508,-0.5528,-0.5479,-0.549,-0.5512,-0.5472,-0.5495,-0.5478,-0.5461,-0.5468,-0.5427,-0.5434,-0.5391,-0.5394,-0.5369,-0.5386,-0.5385,-0.5373,-0.5366,-0.5376,-0.5378,-0.5375,-0.5369,-0.535,-0.535,-0.5349,-0.5349,0,-0.5604,-0.5572,-0.5588,-0.5557,-0.555,-0.5567,-0.554,-0.5549,-0.5527,-0.5536,-0.5536,-0.5501,-0.5501,-0.5469,-0.5464,-0.5446,-0.5474,-0.5459,-0.548,-0.5475,-0.5506,-0.5503,-0.5614,-0.5626,-0.5514,-0.5515,-0.5516,0,-0.5658,-0.5672,-0.5642,-0.5644,-0.5633,-0.5636,-0.5633,-0.5595,-0.5594,-0.5576,-0.5587,-0.5584,-0.558,-0.5583,-0.5557,-0.5553,-0.5537,-0.5576,-0.5536,-0.5546,-0.5537,-0.5536,-0.5537,-0.5585,-0.5586,-0.5587,-0.5588,0,-0.5756,-0.5739,-0.5737,-0.5729,-0.5728,-0.572,-0.571,-0.5713,-0.5671,-0.5672,-0.5672,-0.5669,-0.5662,-0.566,-0.565,-0.5637,-0.5606,-0.5601,-0.5607,-0.5618,-0.5629,-0.5622,-0.5502,-0.5599,-0.5598,-0.5597,-0.5596,-0.5596,-0.5832,-0.5842,-0.5823,-0.5821,-0.5809,-0.58,-0.5807,-0.5785,-0.5784,-0.5775,-0.5753,-0.5756,-0.5739,-0.5722,-0.5712,-0.5714,-0.5695,-0.5704,-0.5707,-0.571,-0.5715,-0.5629,-0.5712,-0.5712,-0.5712,-0.5711,-0.5711,0,-0.5927,-0.5912,-0.5911,-0.5898,-0.5897,-0.5867,-0.5853,-0.5855,-0.5858,-0.5844,-0.584,-0.584,-0.5837,-0.5811,-0.5805,-0.5812,-0.5797,-0.5811,-0.581,-0.5807,-0.5733,-0.5728,-0.5823,-0.5823,-0.5823,-0.5823,-0.5823,-0.5823,-0.5977,-0.5992,-0.5973,-0.5982,-0.5967,-0.5969,-0.5964,-0.5956,-0.5944,-0.5945,-0.5942,-0.5925,-0.5906,-0.5898,-0.5894,-0.5886,-0.5886,-0.5905,-0.5893,-0.5824,-0.5813,-0.5803,-0.5797,-0.5905,-0.5906,-0.5966,-0.5967,-0.5967]}]]